CET,Max TemperatureF,Mean TemperatureF,Min TemperatureF,Max Dew PointF,MeanDew PointF,Min DewpointF,Max Humidity, Mean Humidity, Min Humidity, Max Sea Level PressureIn, Mean Sea Level PressureIn, Min Sea Level PressureIn, Max VisibilityMiles, Mean VisibilityMiles, Min VisibilityMiles, Max Wind SpeedMPH, Mean Wind SpeedMPH, Max Gust SpeedMPH,PrecipitationIn, CloudCover, Events, WindDirDegrees
2013-2-1,60,55,50,54,52,48,94,84,72,30.18,30.01,29.80,6,6,3,10,5,,0.00,4,,195
2013-2-2,62,56,50,55,52,43,94,82,68,29.80,29.50,29.30,6,5,2,23,13,39,0.00,6,Rain-Thunderstorm,197
2013-2-3,53,50,46,46,40,30,87,72,53,29.95,29.63,29.44,6,6,2,15,7,24,0.00,5,Rain-Thunderstorm,115
2013-2-4,55,47,39,36,30,21,87,55,30,30.12,30.05,29.95,6,6,5,9,6,,0.00,6,,1
2013-2-5,55,45,35,52,40,28,94,75,54,30.12,29.99,29.80,6,6,3,12,4,,0.00,5,Rain,230
2013-2-6,57,50,42,50,44,34,88,75,62,29.80,29.62,29.50,6,6,5,15,7,,0.00,3,Rain,236
2013-2-7,48,44,39,45,40,32,93,82,66,29.56,29.51,29.47,6,6,4,14,3,,0.00,5,Rain,48
2013-2-8,50,46,37,41,34,28,93,68,50,29.71,29.61,29.53,6,6,5,13,5,20,0.00,4,Rain,43
2013-2-9,46,42,37,34,29,27,87,64,46,29.86,29.77,29.71,6,6,6,13,5,,0.00,3,,28
2013-2-10,46,40,33,30,27,21,81,61,37,29.98,29.89,29.86,6,6,6,8,5,,0.00,2,,351
2013-2-11,55,45,35,46,37,27,87,70,57,29.98,29.79,29.62,6,6,2,26,7,45,0.00,5,Rain,141
2013-2-12,53,48,44,48,43,39,100,85,72,29.68,29.62,29.56,6,5,2,17,8,,0.00,6,Rain,44
2013-2-13,55,48,42,45,41,34,100,78,47,29.80,29.69,29.62,6,6,4,10,4,,0.00,5,Rain-Thunderstorm,256
2013-2-14,55,48,41,43,38,34,93,69,47,29.98,29.89,29.80,6,6,5,13,6,,0.00,4,Rain,15
2013-2-15,55,46,37,45,39,32,87,76,58,30.01,29.97,29.95,6,6,5,9,4,,0.00,4,Rain,321
2013-2-16,55,50,44,46,40,36,93,70,51,30.04,30.00,29.95,6,6,4,12,5,,0.00,4,Rain,42
2013-2-17,57,48,39,43,37,34,87,67,44,30.06,30.01,29.98,6,6,5,10,4,,0.00,3,,336
2013-2-18,53,46,39,43,39,36,93,76,54,29.98,29.96,29.92,6,6,4,14,4,,0.00,4,Rain,320
2013-2-19,55,47,39,37,34,30,81,65,41,29.98,29.95,29.92,6,6,6,10,5,,0.00,1,,340
2013-2-20,55,45,35,39,36,32,87,67,47,29.98,29.95,29.89,6,6,5,9,3,,0.00,3,,224
2013-2-21,51,45,39,43,37,32,87,72,58,29.89,29.76,29.68,6,5,5,7,3,,0.00,6,Rain,359
2013-2-22,55,46,37,54,45,34,100,90,81,29.68,29.59,29.47,5,4,0,15,4,28,0.00,6,Fog-Rain,155
2013-2-23,60,52,44,52,48,41,94,78,55,29.65,29.59,29.47,6,6,3,18,9,36,0.00,6,Rain-Thunderstorm,196
2013-2-24,55,48,39,50,39,30,88,73,44,29.95,29.78,29.65,6,6,6,17,8,,0.00,5,Rain,267
2013-2-25,50,44,37,43,39,34,93,83,66,30.04,30.00,29.95,6,6,4,9,4,,0.00,4,Rain,17
2013-2-26,53,46,39,43,39,36,93,74,54,30.09,30.04,29.98,6,5,4,10,3,,0.00,6,Rain,10
2013-2-27,57,47,37,43,38,34,93,72,51,30.18,30.12,30.09,6,5,5,8,3,,0.00,4,,327
2013-2-28,59,48,37,43,38,34,87,70,48,30.21,30.17,30.12,6,5,5,8,4,,0.00,1,,332